Starlink 1265

operational
NORAD ID: 45406 Int'l Des: 2020-019 Owner: SPXS Country: US Constellation: starlink
LEOCIRCULARSTARLINK_TYPE

关于 Starlink 1265

正在加载描述...

实时位置

正在加载3D地球...

即将过境

高度历史

Altitude vs Time

uPlot chart will show altitude changes over time

两行轨道根数

1 45406U 20019AY 25350.17879953 .00000755 00000-0 69555-4 0 9996
2 45406 53.0538 151.5142 0001187 92.6756 267.4369 15.06395481317275
Epoch: Dec 16, 2025 • Age: 19 hours

当前状态

高度 547.4 km
速度 7.59 km/s
星下点 20.29°N, 85.43°E
发射日期 Mar 18, 2020
运行时间 5.7 years
类型 internet

技术详情

分类 Payload
质量 260.00 kg
干质量 248.00 kg
总质量 260.00 kg
长度 0.20 m
直径 2.80 m
跨度 9.00 m
形状 Box + pan
制造商 SPXS
平台类型 Starlink
阶段状态 In Orbit
所有者/国家 SPXS/US

大型星座

Loading constellations...